When you browse on this site, cookies collect data to enhance your experience and personalize the content and advertising you see.
Visit our Privacy Policy to learn more. By continuing to use the site, you agree to this use of cookies and data.
EN

Hourly Weather Kozly

Today, 4 August, Tuesday

Time Temperature Precipitation Wind Pressure Humidity
00:00 +18°C° 0 mm 1 mps 752 mmHg 85%
01:00 +18°C° 0 mm 1 mps 752 mmHg 86%
02:00 +18°C° 0 mm 1 mps 753 mmHg 88%
03:00 +17°C° 0.1 mm 2 mps 753 mmHg 89%
04:00 +17°C° 0.1 mm 2 mps 752 mmHg 90%
05:00 +17°C° 0.1 mm 2 mps 752 mmHg 91%
06:00 +18°C° 0.1 mm 3 mps 752 mmHg 89%
07:00 +19°C° 0.1 mm 3 mps 752 mmHg 87%
08:00 +20°C° 0 mm 3 mps 753 mmHg 86%
09:00 +21°C° 0.1 mm 4 mps 752 mmHg 77%
10:00 +23°C° 0.1 mm 4 mps 752 mmHg 68%
11:00 +26°C° 0.1 mm 5 mps 752 mmHg 58%
12:00 +26°C° 0 mm 5 mps 752 mmHg 56%
13:00 +27°C° 0 mm 5 mps 751 mmHg 54%
14:00 +27°C° 0 mm 5 mps 752 mmHg 51%
15:00 +27°C° 0.1 mm 4 mps 751 mmHg 56%
16:00 +26°C° 0.1 mm 4 mps 751 mmHg 61%
17:00 +26°C° 0.1 mm 4 mps 751 mmHg 66%
18:00 +23°C° 0.3 mm 4 mps 751 mmHg 72%
19:00 +22°C° 0.3 mm 4 mps 751 mmHg 78%
20:00 +20°C° 0.3 mm 4 mps 751 mmHg 84%
21:00 +20°C° 2.3 mm 4 mps 751 mmHg 88%
22:00 +20°C° 2.3 mm 5 mps 750 mmHg 92%
23:00 +19°C° 2.3 mm 5 mps 750 mmHg 96%

Tomorrow, 5 August, Wednesday

Time Temperature Precipitation Wind Pressure Humidity
00:00 +19°C° 2.3 mm 5 mps 751 mmHg 96%
01:00 +19°C° 2.3 mm 4 mps 751 mmHg 97%
02:00 +19°C° 2.3 mm 3 mps 751 mmHg 97%
03:00 +18°C° 0 mm 3 mps 751 mmHg 97%
04:00 +18°C° 0 mm 3 mps 752 mmHg 97%
05:00 +17°C° 0 mm 2 mps 752 mmHg 97%
06:00 +17°C° 0.1 mm 2 mps 753 mmHg 96%
07:00 +17°C° 0.1 mm 2 mps 753 mmHg 95%
08:00 +17°C° 0.1 mm 2 mps 754 mmHg 94%
09:00 +19°C° 0 mm 2 mps 754 mmHg 87%
10:00 +20°C° 0 mm 2 mps 755 mmHg 80%
11:00 +21°C° 0 mm 2 mps 755 mmHg 73%
12:00 +23°C° 0 mm 2 mps 756 mmHg 67%
13:00 +24°C° 0 mm 2 mps 756 mmHg 61%
14:00 +25°C° 0 mm 2 mps 756 mmHg 55%
15:00 +25°C° 0 mm 2 mps 756 mmHg 55%
16:00 +25°C° 0 mm 2 mps 757 mmHg 55%
17:00 +25°C° 0 mm 2 mps 757 mmHg 55%
18:00 +23°C° 0 mm 2 mps 757 mmHg 62%
19:00 +20°C° 0 mm 2 mps 757 mmHg 69%
20:00 +19°C° 0 mm 1 mps 758 mmHg 76%
21:00 +18°C° 0 mm 1 mps 758 mmHg 76%
22:00 +16°C° 0 mm 1 mps 759 mmHg 76%
23:00 +15°C° 0 mm 1 mps 759 mmHg 76%

Day after tomorrow, 6 August, Thursday

Time Temperature Precipitation Wind Pressure Humidity
00:00 +15°C° 0 mm 1 mps 759 mmHg 77%
01:00 +14°C° 0 mm 1 mps 760 mmHg 78%
02:00 +13°C° 0 mm 1 mps 760 mmHg 78%
03:00 +13°C° 0 mm 1 mps 760 mmHg 80%
04:00 +13°C° 0 mm 1 mps 760 mmHg 82%
05:00 +12°C° 0 mm 1 mps 761 mmHg 84%
06:00 +14°C° 0 mm 1 mps 761 mmHg 79%
07:00 +16°C° 0 mm 1 mps 761 mmHg 73%
08:00 +18°C° 0 mm 2 mps 762 mmHg 68%
09:00 +19°C° 0 mm 2 mps 762 mmHg 62%
10:00 +20°C° 0 mm 2 mps 762 mmHg 57%
11:00 +23°C° 0 mm 2 mps 762 mmHg 51%
12:00 +23°C° 0 mm 2 mps 762 mmHg 52%
13:00 +22°C° 0 mm 3 mps 762 mmHg 53%
14:00 +24°C° 0 mm 3 mps 762 mmHg 54%
15:00 +23°C° 0 mm 2 mps 762 mmHg 58%
16:00 +23°C° 0 mm 2 mps 762 mmHg 61%
17:00 +21°C° 0 mm 2 mps 762 mmHg 64%
18:00 +21°C° 0 mm 1 mps 762 mmHg 70%
19:00 +20°C° 0 mm 1 mps 762 mmHg 76%
20:00 +16°C° 0 mm 0 mps 762 mmHg 82%
21:00 +16°C° 0 mm 0 mps 763 mmHg 84%
22:00 +16°C° 0 mm 1 mps 763 mmHg 86%
23:00 +16°C° 0 mm 1 mps 763 mmHg 88%

7 August, Friday

Time Temperature Precipitation Wind Pressure Humidity
00:00 +16°C° 0 mm 1 mps 763 mmHg 90%
01:00 +15°C° 0 mm 1 mps 763 mmHg 92%
02:00 +15°C° 0 mm 1 mps 763 mmHg 95%
03:00 +15°C° 0 mm 1 mps 764 mmHg 95%
04:00 +15°C° 0 mm 1 mps 764 mmHg 96%
05:00 +15°C° 0 mm 1 mps 764 mmHg 96%
06:00 +18°C° 0 mm 1 mps 764 mmHg 90%
07:00 +19°C° 0 mm 1 mps 764 mmHg 84%
08:00 +21°C° 0 mm 1 mps 764 mmHg 78%
09:00 +22°C° 0 mm 1 mps 764 mmHg 76%
10:00 +22°C° 0 mm 1 mps 764 mmHg 74%
11:00 +23°C° 0 mm 1 mps 764 mmHg 72%
12:00 +23°C° 0.3 mm 1 mps 764 mmHg 72%
13:00 +24°C° 0.3 mm 1 mps 764 mmHg 72%
14:00 +24°C° 0.3 mm 2 mps 763 mmHg 73%
15:00 +24°C° 0.5 mm 1 mps 763 mmHg 76%
16:00 +24°C° 0.5 mm 1 mps 763 mmHg 79%
17:00 +23°C° 0.5 mm 1 mps 763 mmHg 82%
18:00 +22°C° 0.1 mm 1 mps 763 mmHg 85%
19:00 +21°C° 0.1 mm 1 mps 763 mmHg 88%
20:00 +20°C° 0.1 mm 1 mps 763 mmHg 91%
21:00 +19°C° 0 mm 1 mps 763 mmHg 92%
22:00 +19°C° 0 mm 1 mps 763 mmHg 92%
23:00 +18°C° 0 mm 1 mps 763 mmHg 93%

8 August, Saturday

Time Temperature Precipitation Wind Pressure Humidity
00:00 +18°C° 0 mm 1 mps 763 mmHg 93%
01:00 +16°C° 0 mm 1 mps 763 mmHg 93%
02:00 +16°C° 0 mm 1 mps 763 mmHg 93%
03:00 +16°C° 0 mm 1 mps 763 mmHg 93%
04:00 +16°C° 0 mm 1 mps 763 mmHg 93%
05:00 +16°C° 0 mm 1 mps 763 mmHg 93%
06:00 +19°C° 0 mm 1 mps 763 mmHg 90%
07:00 +20°C° 0 mm 1 mps 763 mmHg 87%
08:00 +21°C° 0 mm 1 mps 763 mmHg 84%
09:00 +22°C° 0.1 mm 1 mps 762 mmHg 79%
10:00 +23°C° 0.1 mm 1 mps 762 mmHg 74%
11:00 +24°C° 0.1 mm 1 mps 762 mmHg 70%
12:00 +25°C° 0.2 mm 1 mps 762 mmHg 68%
13:00 +25°C° 0.2 mm 1 mps 761 mmHg 67%
14:00 +26°C° 0.2 mm 1 mps 761 mmHg 66%
15:00 +26°C° 0.2 mm 1 mps 760 mmHg 66%
16:00 +26°C° 0.2 mm 1 mps 760 mmHg 67%
17:00 +26°C° 0.2 mm 1 mps 760 mmHg 67%
18:00 +24°C° 0 mm 1 mps 760 mmHg 74%
19:00 +22°C° 0 mm 1 mps 760 mmHg 81%
20:00 +21°C° 0 mm 1 mps 759 mmHg 88%
21:00 +20°C° 0 mm 1 mps 759 mmHg 89%
22:00 +19°C° 0 mm 1 mps 759 mmHg 91%
23:00 +17°C° 0 mm 0 mps 759 mmHg 93%

9 August, Sunday

Time Temperature Precipitation Wind Pressure Humidity
00:00 +18°C° 0 mm 1 mps 759 mmHg 93%
01:00 +18°C° 0 mm 1 mps 759 mmHg 94%
02:00 +16°C° 0 mm 1 mps 759 mmHg 95%
03:00 +16°C° 0 mm 1 mps 759 mmHg 95%
04:00 +16°C° 0 mm 1 mps 758 mmHg 96%
05:00 +16°C° 0 mm 1 mps 758 mmHg 96%
06:00 +18°C° 0 mm 1 mps 758 mmHg 91%
07:00 +20°C° 0 mm 1 mps 758 mmHg 86%
08:00 +22°C° 0 mm 1 mps 758 mmHg 81%
09:00 +23°C° 0.2 mm 1 mps 758 mmHg 76%
10:00 +24°C° 0.2 mm 2 mps 757 mmHg 71%
11:00 +25°C° 0.2 mm 2 mps 757 mmHg 66%
12:00 +26°C° 0.2 mm 2 mps 757 mmHg 64%
13:00 +26°C° 0.2 mm 2 mps 757 mmHg 62%
14:00 +26°C° 0.2 mm 3 mps 756 mmHg 60%
15:00 +26°C° 0 mm 3 mps 756 mmHg 60%
16:00 +26°C° 0 mm 2 mps 756 mmHg 61%
17:00 +26°C° 0 mm 2 mps 756 mmHg 62%
18:00 +24°C° 0 mm 2 mps 756 mmHg 71%
19:00 +21°C° 0 mm 2 mps 756 mmHg 80%
20:00 +20°C° 0 mm 1 mps 755 mmHg 89%
21:00 +19°C° 0 mm 1 mps 756 mmHg 90%
22:00 +19°C° 0 mm 1 mps 756 mmHg 92%
23:00 +18°C° 0 mm 1 mps 756 mmHg 93%
Show more